Regional Weather Roundup
Issued by NWS

Home | Current Version | Previous Version | Graphics & Text | Print | Product List | Glossary On
Versions: 1 2 3 4 5 6 7 8 9 10 11 12 13 14 15 16 17 18 19 20 21 22 23 24 25 26 27 28
000
ASUS45 KCYS 172310
RWRWY

WYOMING REGIONAL WEATHER ROUNDUP
NATIONAL WEATHER SERVICE CHEYENNE WY
400 PM MST TUE JAN 17 2017

NOTE:  "FAIR" INDICATES FEW OR NO CLOUDS BELOW 12,000 FEET
WITH NO SIGNIFICANT WEATHER AND/OR OBSTRUCTIONS TO VISIBILITY.

WYZ001-180000-
YELLOWSTONE NATIONAL PARK

CITY           SKY/WX    TMP DP  RH WIND       PRES   REMARKS
LK YELLOWSTONE   N/A     11   5  77 CALM      30.12S
W YELLOWSTONE  NOT AVBL

$$
WYZ002>013-054>058-071-098>099-180000-
NORTHERN WYOMING

CITY           SKY/WX    TMP DP  RH WIND       PRES   REMARKS
JACKSON        SUNNY      9   3  78 CALM      30.17F
CODY           FAIR      31  17  56 CALM      29.94F
GREYBULL       FAIR       9   0  67 NW3       30.01F
WORLAND        FAIR      17   9  70 CALM      29.99S
SHERIDAN       FAIR      30  19  63 S3        29.87F
BUFFALO        FAIR      42  22  44 S3        29.91S
GILLETTE       FAIR      42  24  49 SW20      29.89S
HULETT         FAIR      41  18  38 SW12      29.90S
NEWCASTLE      FAIR      32  19  59 CALM      29.94R

$$
WYZ014>020-022>026-101>103-180000-
CENTRAL WYOMING

CITY           SKY/WX    TMP DP  RH WIND       PRES   REMARKS
BIG PINEY      FAIR       3  -3  76 NE5       30.15R WCI  -6
PINEDALE       FAIR       5   0  78 CALM      30.15R
DUBOIS         NOT AVBL
LANDER         FAIR      19   8  62 CALM      30.06R
RIVERTON       FAIR      17   7  64 NW3       30.07S
CASPER         FAIR      35  11  36 SW24G40   30.00R WCI  23
DOUGLAS        FAIR      46  10  23 NW14      29.96R

$$
WYZ021-027>030-104>119-180000-
SOUTHERN WYOMING

CITY           SKY/WX    TMP DP  RH WIND       PRES   REMARKS
EVANSTON       FAIR      19   7  59 E3        30.12S
ROCK SPRINGS   FAIR       5   0  79 CALM      30.14R
RAWLINS        FAIR      21  11  65 SW6       30.13S WCI  13
LARAMIE        FAIR      19  13  77 NW3       30.06S
CHEYENNE       FAIR      47   5  18 NW8       29.99R
TORRINGTON     FAIR      49   7  18 W10       29.95S

$$




USA.gov is the U.S. government's official web portal to all federal, state and local government web resources and services.